WA8KWD Weather Reports


Display with metric or nautical units.
time (UTC)temp
F
wind
direction
speed
MPH
gust
MPH
rain 1hr
in
rain 24hr
in
rain mn
in
humidity
%
barometer
mb
20260508084507 43 193 0.0 0.0 0.00 0.00 0.00 43 1014.8
20260508083006 43 193 0.0 0.0 0.00 0.00 0.00 42 1015.0
20260508081504 44 196 0.0 1.0 0.00 0.00 0.00 45 1015.1
20260508080001 44 209 0.0 1.0 0.00 0.00 0.00 44 1015.1
20260508074501 44 159 0.0 0.0 0.00 0.00 0.00 47 1015.2
20260508073101 44 159 0.0 1.0 0.00 0.00 0.00 43 1015.0
20260508071600 44 210 0.0 0.0 0.00 0.00 0.00 48 1015.2
20260508070058 44 263 0.0 1.0 0.00 0.00 0.00 38 1015.5
20260508064559 44 151 0.0 0.0 0.00 0.00 0.00 48 1015.4
20260508063055 44 152 0.0 0.0 0.00 0.00 0.00 54 1015.3
20260508061553 44 152 0.0 0.0 0.00 0.00 0.00 47 1015.3
20260508060050 44 152 0.0 0.0 0.00 0.00 0.00 55 1015.2
20260508054549 44 152 0.0 0.0 0.00 0.00 0.00 59 1015.3
20260508053053 45 152 0.0 1.0 0.00 0.00 0.00 61 1015.4
20260508051549 45 296 0.0 0.0 0.00 0.00 0.00 63 1015.4
20260508050051 45 296 0.0 0.0 0.00 0.00 0.00 64 1015.6
20260508044543 46 298 0.0 0.0 0.00 0.00 0.00 64 1015.7
20260508043039 45 298 0.0 0.0 0.00 0.00 0.00 64 1015.7
20260508041537 45 298 0.0 0.0 0.00 0.00 0.00 64 1015.7
20260508040048 44 298 0.0 0.0 0.00 0.00 0.00 64 1015.6
20260508034539 44 298 0.0 0.0 0.00 0.00 0.00 64 1015.6
20260508033025 44 298 0.0 0.0 0.00 0.00 0.00 64 1015.5
20260508031522 45 298 0.0 0.0 0.00 0.00 0.00 64 1015.3
20260508030016 44 298 0.0 0.0 0.00 0.00 0.00 65 1015.3
20260508024521 44 310 0.0 0.0 0.00 0.00 0.00 63 1015.4
20260508023010 45 310 0.0 0.0 0.00 0.00 0.00 61 1015.3
20260508021504 45 310 0.0 0.0 0.00 0.00 0.00 62 1015.3
20260508020100 45 310 0.0 0.0 0.00 0.00 0.00 61 1015.4
20260508014555 45 310 0.0 0.0 0.00 0.00 0.00 61 1015.2
20260508013050 46 311 0.0 0.0 0.00 0.00 0.00 58 1015.1
20260508011546 47 311 0.0 0.0 0.00 0.00 0.00 56 1014.9
20260508010041 48 311 0.0 0.0 0.00 0.00 0.00 53 1014.8
20260508004541 49 311 0.0 0.0 0.00 0.00 0.00 52 1014.7
20260508003033 50 311 0.0 0.0 0.00 0.00 0.00 51 1014.6
20260508001530 51 311 1.0 4.0 0.00 0.00 0.00 48 1014.6
20260508000024 52 315 2.0 7.0 0.00 0.00 0.00 47 1014.3
20260507234529 53 309 0.0 5.0 0.00 0.00 0.00 47 1014.1
20260507233019 53 311 2.0 5.0 0.00 0.00 0.00 47 1014.1
20260507231511 53 312 1.0 7.0 0.00 0.00 0.00 46 1014.1
20260507230013 54 233 0.0 4.0 0.00 0.00 0.00 48 1014.2
20260507224502 54 293 5.0 11.0 0.00 0.00 0.00 48 1014.2
20260507223110 54 231 1.0 12.0 0.00 0.00 0.00 49 1014.2
20260507221554 53 284 2.0 12.0 0.00 0.00 0.00 51 1014.3
20260507220048 54 295 5.0 16.0 0.00 0.00 0.00 49 1014.0
20260507214547 55 238 3.0 15.0 0.00 0.00 0.00 48 1013.8
20260507213042 55 305 6.0 10.0 0.00 0.00 0.00 50 1013.7
20260507211545 57 264 3.0 9.0 0.00 0.00 0.00 48 1013.4
20260507210036 56 277 4.0 13.0 0.00 0.00 0.00 50 1013.2
20260507204525 56 281 0.0 11.0 0.00 0.00 0.00 50 1013.2
20260507203022 57 250 4.0 8.0 0.00 0.00 0.00 45 1013.0
20260507201517 57 243 1.0 11.0 0.00 0.00 0.00 52 1013.1
20260507200014 57 268 6.0 12.0 0.00 0.00 0.00 47 1013.0
20260507194525 57 229 1.0 6.0 0.00 0.00 0.00 52 1013.3
20260507193004 56 314 6.0 12.0 0.00 0.00 0.00 48 1013.5
20260507191503 56 334 2.0 8.0 0.00 0.00 0.00 50 1013.6
20260507190113 56 328 5.0 9.0 0.00 0.00 0.00 47 1013.6
20260507184554 56 309 4.0 11.0 0.00 0.00 0.00 45 1013.6
20260507183111 57 248 2.0 6.0 0.00 0.00 0.00 45 1013.5
20260507181546 57 278 1.0 9.0 0.00 0.00 0.00 53 1013.6
20260507180042 57 302 3.0 12.0 0.00 0.00 0.00 50 1013.7
20260507174537 57 234 7.0 13.0 0.00 0.00 0.00 44 1013.7
20260507173043 56 248 1.0 6.0 0.00 0.00 0.00 51 1013.9
20260507171527 57 285 3.0 9.0 0.00 0.00 0.00 54 1014.1
20260507170023 57 245 3.0 7.0 0.00 0.00 0.00 47 1014.2
20260507164523 55 247 0.0 6.0 0.00 0.00 0.00 48 1014.3
20260507163017 56 240 1.0 6.0 0.00 0.00 0.00 46 1014.3
20260507161510 55 315 3.0 7.0 0.00 0.00 0.00 47 1014.4
20260507160006 55 224 1.0 7.0 0.00 0.00 0.00 49 1014.4
20260507154503 55 197 1.0 5.0 0.00 0.00 0.00 53 1014.5
20260507153058 54 231 0.0 4.0 0.00 0.00 0.00 51 1014.5
20260507151553 54 245 0.0 3.0 0.00 0.00 0.00 50 1014.6
20260507150050 54 233 0.0 4.0 0.00 0.00 0.00 52 1014.7
20260507144543 53 307 3.0 6.0 0.00 0.01 0.00 57 1014.8
20260507143042 52 241 1.0 5.0 0.00 0.01 0.00 58 1014.8
20260507141535 51 244 0.0 2.0 0.00 0.01 0.00 58 1015.0
20260507140030 51 240 0.0 4.0 0.00 0.01 0.00 58 1015.2
20260507134526 51 234 1.0 5.0 0.00 0.01 0.00 58 1015.5
20260507133025 49 239 0.0 3.0 0.00 0.01 0.00 52 1015.5
20260507131519 47 233 0.0 0.0 0.00 0.01 0.00 26 1015.5
20260507130012 46 240 0.0 1.0 0.00 0.01 0.00 4 1015.5
20260507124513 45 225 0.0 3.0 0.00 0.01 0.00 1 1015.6
20260507123010 43 170 0.0 0.0 0.00 0.01 0.00 1 1015.6
20260507121512 42 212 0.0 0.0 0.00 0.01 0.00 1 1015.5
20260507120009 41 167 0.0 0.0 0.00 0.03 0.00 1 1015.5
20260507114504 40 350 0.0 0.0 0.00 0.03 0.00 1 1015.4
20260507113130 39 350 0.0 0.0 0.00 0.03 0.00 1 1015.4
20260507111559 38 350 0.0 0.0 0.00 0.03 0.00 1 1015.3
20260507110057 38 350 0.0 0.0 0.00 0.03 0.00 1 1015.2
20260507104555 37 350 0.0 1.0 0.00 0.05 0.00 1 1015.1
20260507103053 37 352 0.0 0.0 0.00 0.05 0.00 1 1015.1
20260507101547 36 353 0.0 0.0 0.00 0.05 0.00 1 1015.1
20260507100039 35 353 0.0 0.0 0.00 0.05 0.00 1 1014.9
20260507094536 36 353 0.0 0.0 0.00 0.16 0.00 1 1014.8
20260507093035 36 353 0.0 0.0 0.00 0.16 0.00 1 1014.9
20260507091527 37 353 0.0 0.0 0.00 0.16 0.00 1 1014.9
20260507090023 37 353 0.0 0.0 0.00 0.16 0.00 1 1015.0